FW4335 Weather Reports


Display with metric or nautical units.
time (UTC)temp
F
wind
direction
speed
MPH
gust
MPH
rain 1hr
in
rain 24hr
in
rain mn
in
humidity
%
barometer
mb
20260502194531 63 314 0.0 2.0 0.00 0.00 0.00 76 1016.9
20260502193031 62 337 1.0 5.0 0.00 0.00 0.00 75 1017.2
20260502191530 64 357 1.0 5.0 0.00 0.00 0.00 72 1017.5
20260502181530 66 350 0.0 4.0 0.00 0.00 0.00 70 1017.8
20260502163035 58 48 0.0 4.0 0.00 0.00 0.00 80 1018.6
20260502151536 55 122 1.0 3.0 0.00 0.00 0.00 84 1018.2
20260502123030 52 211 0.0 2.0 0.00 0.00 0.00 89 1016.8
20260502121607 53 360 0.0 0.0 0.00 0.00 0.00 88 1016.8
20260502113142 54 212 1.0 3.0 0.00 0.00 0.00 86 1016.9
20260502104530 55 213 0.0 2.0 0.00 0.00 0.00 84 1017.3
20260502103032 54 179 2.0 3.0 0.00 0.00 0.00 85 1017.5
20260502091533 53 202 0.0 2.0 0.00 0.00 0.00 88 1017.8
20260502071530 56 168 0.0 2.0 0.00 0.00 0.00 80 1017.6
20260502070031 56 239 0.0 2.0 0.00 0.00 0.00 78 1017.5
20260502064537 57 202 0.0 0.0 0.00 0.00 0.00 77 1017.6
20260502063031 58 211 1.0 3.0 0.00 0.00 0.00 75 1017.7
20260502054535 60 19 0.0 4.0 0.00 0.00 0.00 71 1017.2
20260502053031 61 191 0.0 0.0 0.00 0.00 0.00 69 1017.3
20260502051536 62 212 1.0 4.0 0.00 0.00 0.00 67 1017.3
20260502050031 63 149 0.0 5.0 0.00 0.00 0.00 65 1017.1
20260502044605 63 136 2.0 6.0 0.00 0.00 0.00 66 1016.9
20260502043035 64 157 0.0 2.0 0.00 0.00 0.00 65 1016.7
20260502041606 64 160 1.0 3.0 0.00 0.00 0.00 63 1016.4
20260502040035 65 284 1.0 3.0 0.00 0.00 0.00 60 1016.3
20260502034645 66 149 0.0 5.0 0.00 0.00 0.00 58 1016.2
20260502033031 67 95 0.0 2.0 0.00 0.00 0.00 56 1016.2
20260502030029 68 126 2.0 6.0 0.00 0.00 0.00 55 1015.7
20260502024532 69 232 1.0 5.0 0.00 0.00 0.00 52 1015.2
20260502023035 71 336 0.0 6.0 0.00 0.00 0.00 49 1014.8
20260502021531 73 28 2.0 4.0 0.00 0.00 0.00 47 1014.6
20260502020031 75 33 0.0 4.0 0.00 0.00 0.00 45 1014.6
20260502014535 76 53 0.0 4.0 0.00 0.00 0.00 42 1014.5
20260502013034 81 340 0.0 3.0 0.00 0.00 0.00 36 1014.4
20260502011529 81 337 0.0 1.0 0.00 0.00 0.00 35 1014.4
20260502010032 80 337 0.0 1.0 0.00 0.00 0.00 35 1014.4
20260502004533 82 293 0.0 2.0 0.00 0.00 0.00 33 1014.5
20260502003035 82 230 0.0 4.0 0.00 0.00 0.00 32 1014.6
20260502001529 81 285 0.0 5.0 0.00 0.00 0.00 33 1014.6
20260502000036 80 284 0.0 3.0 0.00 0.00 0.00 34 1014.7
20260501234531 79 309 0.0 5.0 0.00 0.00 0.00 35 1014.9
20260501233035 79 296 0.0 2.0 0.00 0.00 0.00 34 1015.0
20260501231530 79 344 0.0 4.0 0.00 0.00 0.00 33 1015.4
20260501230029 80 328 1.0 5.0 0.00 0.00 0.00 34 1015.7
20260501223035 80 347 1.0 5.0 0.00 0.00 0.00 35 1016.1
20260501221534 79 357 1.0 6.0 0.00 0.00 0.00 36 1016.3
20260501220038 79 307 0.0 4.0 0.00 0.00 0.00 37 1016.6
20260501214533 78 283 1.0 6.0 0.00 0.00 0.00 37 1016.7
20260501213034 78 329 1.0 5.0 0.00 0.00 0.00 38 1016.9
20260501211648 78 331 1.0 7.0 0.00 0.00 0.00 37 1017.0
20260501210030 77 338 0.0 6.0 0.00 0.00 0.00 38 1017.2
20260501204531 77 331 1.0 5.0 0.00 0.00 0.00 38 1017.4
20260501200034 74 297 1.0 3.0 0.00 0.00 0.00 42 1018.0